Tracking 21094 objects as of 14-Aug-2020
HD Live streaming from Space Station
objects crossing your sky now
Track the most recent launched group of Starlink satellites

SATCOM 3 DEB

Track SATCOM 3 DEB now!


NORAD ID: 31138
Int'l Code: 1979-101H
Perigee: 8,183.7 km
Apogee: 35,532.2 km
Inclination: 8.4 °
Period: 786.7 minutes
Semi major axis: 28228 km
RCS: 0.0839 m2 (small)
Launch date: December 7, 1979
Source: United States (US)
Launch site: AIR FORCE EASTERN TEST RANGE (AFETR)

Note: This is SATELLITE DEBRIS
aabbcc
Your satellite tracking list
Your tracking list is empty




NASA's NSSDC Master Catalog

Two Line Element Set (TLE):
1 31138U 79101H   20223.52756404 -.00000072 +00000-0 +00000-0 0  9996
2 31138 008.3912 273.9048 4844052 111.3617 331.4138 01.83046445091593
Source of the keplerian elements: AFSPC